{"data":{"norad_id":63237,"intl_designator":"2025-052AD","name":"TEVEL2-9","alt_names":[],"object_type":"PAYLOAD","status":"ACTIVE","operator":null,"country":"ISRA","launch_date":"2025-03-15","launch_site_code":"AFWTR","launch_vehicle":null,"mission":null,"orbit_class":"UNKNOWN","rcs_meters":null,"size_class":null,"mass_kg":null,"dimensions":null,"purposes":["comms"],"wikipedia_slug":null,"has_3d_model":false,"image_url":null,"decayed_at":null,"tle_current":{"epoch":"2026-09-19T23:35:38.389344Z","epoch_age_seconds":62850,"freshness":"FRESH","line1":"1 63237U 25052AD  26262.98308321  .00012161  00000+0  36515-3 0  9990","line2":"2 63237  97.3790 158.2348 0006777 145.7016 214.4666 15.34562116 84555","mean_motion":15.34562116,"eccentricity":0.0006777,"inclination_deg":97.379,"raan_deg":158.2348,"arg_perigee_deg":145.7016,"mean_anomaly_deg":214.4666,"bstar":0.00036515,"rev_number":8455,"period_min":93.837843707071,"perigee_km":457.58572879612,"apogee_km":466.85715062531,"semimajor_km":6840.3584397107,"source":"CELESTRAK","updated_at":"2026-09-20T09:00:45.265110Z"}}}